Logan, UT

4:04 PM MDT on October 21, 2017 (GMT -0600)
Logan-Cache

Weather History for KLGU - October, 2013

Change the Weather History Date:

Wednesday, October 2, 2013

  Actual Average Record
Temperature  
Mean Temperature 49 °F -  
Max Temperature 59 °F 71 °F 88 °F (2010)
Min Temperature 39 °F 38 °F 23 °F (1964)
Degree Days  
Heating Degree Days 16    
Moisture  
Dew Point 39 °F    
Average Humidity 70    
Maximum Humidity 96    
Minimum Humidity 46    
Precipitation  
Precipitation 0.03 in - - ()
Sea Level Pressure  
Sea Level Pressure 29.91 in    
Wind  
Wind Speed 3 mph (North)    
Max Wind Speed 15 mph    
Max Gust Speed 21 mph    
Visibility 10 miles    
Events Rain    
Averages and records for this station are not official NWS values.
T = Trace of Precipitation, MM = Missing Value Source: NWS Daily Summary

Daily Weather History Graph

Daily Weather History Graph

Search for Another Location

Airport or City:

Trip Planner

Search our weather history database for the weather conditions in past years. The results will help you decide how hot, cold, wet, or windy it might be!

Date:

Astronomy

Oct. 02, 2013 Rise Set
Actual Time 7:25 AM MDT 7:06 PM MDT
Civil Twilight 6:57 AM MDT 7:34 PM MDT
Nautical Twilight 6:25 AM MDT 8:06 PM MDT
Astronomical Twilight 5:53 AM MDT 8:39 PM MDT
Moon 5:00 AM MDT (10/2) 5:46 PM MDT (10/2)
Length of Visible Light 12h 36m
Length of Day
11h 41m
Waning Crescent, 6% of the Moon is Illuminated
Oct 2
Waning Crescent
Oct 4
New
Oct 11
First Quarter
Oct 18
Full
Oct 26
Last Quarter

Hourly Weather History & Observations

Time (MDT) Temp. Windchill Dew Point Humidity Pressure Visibility Wind Dir Wind Speed Gust Speed Precip Events Conditions
12:51 AM 45.0 °F - 37.9 °F 76% 29.93 in 10.0 mi Calm Calm - N/A   Clear
1:51 AM 48.0 °F - 39.0 °F 71% 29.94 in 10.0 mi Variable 3.5 mph - N/A   Partly Cloudy
2:51 AM 46.9 °F - 37.9 °F 71% 29.95 in 10.0 mi NNW 4.6 mph - N/A   Partly Cloudy
3:51 AM 46.0 °F - 37.9 °F 73% 29.94 in 10.0 mi Calm Calm - N/A   Partly Cloudy
4:51 AM 43.0 °F - 37.0 °F 80% 29.96 in 10.0 mi Calm Calm - N/A   Clear
5:51 AM 43.0 °F 40.3 °F 37.0 °F 80% 29.97 in 10.0 mi SSE 4.6 mph - N/A   Clear
6:51 AM 39.9 °F - 35.1 °F 83% 29.98 in 10.0 mi Calm Calm - N/A   Clear
7:51 AM 39.9 °F 37.8 °F 34.0 °F 79% 30.01 in 10.0 mi North 3.5 mph - N/A   Clear
8:51 AM 45.0 °F - 39.0 °F 80% 30.01 in 10.0 mi Calm Calm - N/A   Partly Cloudy
9:51 AM 48.0 °F - 37.0 °F 66% 30.00 in 10.0 mi Calm Calm - N/A   Clear
10:51 AM 51.1 °F - 37.9 °F 61% 29.98 in 10.0 mi Calm Calm - N/A   Partly Cloudy
11:51 AM 55.0 °F - 37.9 °F 53% 29.93 in 10.0 mi North 5.8 mph - N/A   Partly Cloudy
12:51 PM 55.9 °F - 37.0 °F 49% 29.91 in 10.0 mi NNE 3.5 mph - N/A   Mostly Cloudy
1:51 PM 57.9 °F - 37.9 °F 47% 29.87 in 10.0 mi Calm Calm - N/A   Mostly Cloudy
2:51 PM 57.9 °F - 37.9 °F 47% 29.85 in 10.0 mi North 3.5 mph - N/A   Overcast
3:51 PM 59.0 °F - 37.9 °F 46% 29.83 in 10.0 mi Calm Calm - N/A   Overcast
4:51 PM 57.9 °F - 39.9 °F 51% 29.84 in 10.0 mi NW 5.8 mph - N/A   Overcast
5:51 PM 54.0 °F - 39.0 °F 57% 29.86 in 10.0 mi North 10.4 mph - 0.00 in   Overcast
6:51 PM 51.1 °F - 44.1 °F 77% 29.91 in 6.0 mi North 10.4 mph - 0.01 in Rain Light Rain
7:11 PM 51.8 °F - 44.6 °F 76% 29.91 in 9.0 mi East 6.9 mph - 0.01 in Rain Light Rain
7:51 PM 50.0 °F - 45.0 °F 83% 29.85 in 10.0 mi SW 15.0 mph 20.7 mph 0.02 in   Overcast
8:51 PM 48.9 °F - 44.1 °F 83% 29.82 in 10.0 mi NNE 9.2 mph - N/A   Partly Cloudy
9:51 PM 46.0 °F 41.9 °F 42.1 °F 86% 29.80 in 10.0 mi NW 8.1 mph - N/A   Clear
10:51 PM 45.0 °F - 41.0 °F 86% 29.80 in 10.0 mi Calm Calm - N/A   Clear
11:51 PM 41.0 °F - 39.9 °F 96% 29.80 in 10.0 mi Calm Calm - N/A   Clear